HORIZONS-3E

Last updated on Sun Jul 06 2025 00:02:46 GMT+0000 (Coordinated Universal Time)

1 43633U 18074B 25186.15669502 -.00000015 00000+0 00000+0 0 9990 2 43633 0.0633 194.0462 0000937 100.5548 214.2061 1.00271984 24869
UTC large
Height (km)
Speed (km/s)
/
Latitude / Longitude
Inclination (degrees)
Orbital Period (minutes)
Azimuth
Elevation
Range (km)
Doppler Factor

Next 0 passes for location: London (51.5072 / 0.1276)

Sorry there are no passes over London.